Location: Cisewo
(53.3833°N, 14.9000°E)
Time: 12:12:48
(UTC+00:00)

BEESAT 3 - Pass Details

Date: 30 September 2021
Orbit: 481 x 510 km, 64.9° (Epoch: 22 October)

Event Time Altitude Azimuth Distance (km) Brightness Sun altitude
Rises 17:28:13 0° 306° (NW) 2,607 ? -8.1°
Reaches altitude 10° 17:31:06 10° 329° (NNW) 1,727 ? -8.6°
Maximum altitude 17:33:31 16° 8° (N) 1,404 ? -8.9°
Drops below altitude 10° 17:35:57 10° 47° (NE) 1,735 ? -9.3°
Enters shadow 17:36:57 - 57° (ENE) 2,007 ? -9.4°
